Temp
62 62 62 61 62 61 61 61 61 61 61 62 62 63 63 63 63 62 62 62 62 60 62 61 61 61 60 59 60 60 60 61 58 60 61 61 61 60 61 61 62 61 60
62 62 61 61 61 60 61 61 61 62 62 63 64 64 64 64 63 62 62 63 61 61 60 60 60 61 60 59 59 60 60 62 62 58 59 58 58 59 60 60 60 61 60
62 61 60 60 60 60 61 61 62 62 62 63 64 64 64 64 63 63 63 63 62 62 61 60 61 62 60 59 59 60 61 62 62 59 57 58 57 58 57 57 57 59 59
62 61 60 60 61 61 61 61 61 62 63 63 64 64 63 63 63 64 63 63 61 62 62 62 62 62 61 60 60 60 61 61 60 58 56 56 56 57 57 55 54 56 54
62 61 61 61 61 61 61 61 62 63 63 64 63 62 62 62 60 61 63 62 61 61 61 62 61 62 60 60 61 61 61 60 58 57 56 56 56 55 54 55 52 52 52
62 62 61 61 61 61 61 61 62 63 62 63 61 61 60 58 46 48 57 63 62 60 59 60 60 58 57 55 56 57 60 60 58 57 56 55 56 55 55 54 53 52 49
62 63 62 62 62 61 62 62 62 61 61 60 60 60 58 57 45 46 52 61 61 61 60 60 60 59 59 59 54 54 54 54 58 60 57 58 55 56 56 55 55 53 51
63 64 63 63 62 62 61 61 59 60 59 59 58 58 58 55 46 48 50 61 61 61 61 61 60 59 58 59 60 60 60 61 60 63 62 60 59 58 58 56 52 50 51
63 64 64 63 62 61 61 60 59 58 58 58 58 58 58 57 46 47 55 61 61 60 61 60 60 58 48 49 58 56 56 55 51 51 51 48 47 48 52 55 52 52 51
65 65 64 64 62 61 60 59 59 59 59 58 57 58 53 58 46 47 57 61 60 59 59 57 51 54 46 48 57 56 55 55 55 54 53 50 51 50 51 57 56 52 55
66 65 64 63 62 61 60 60 59 59 58 57 57 57 57 56 54 46 51 62 60 59 58 57 53 45 45 46 51 58 54 56 53 56 55 55 55 56 56 56 59 60 57
66 65 63 62 64 62 60 59 59 59 58 56 56 56 57 58 49 46 47 51 52 60 58 56 49 44 45 46 51 45 46 52 58 56 55 55 55 56 56 58 58 59 59
64 63 62 62 62 61 60 58 58 59 59 57 57 56 57 58 56 45 44 45 49 58 59 50 43 43 44 45 44 45 50 60 58 57 56 57 57 58 56 56 57 58 58
63 61 61 61 60 61 61 60 59 59 60 59 58 57 57 57 58 56 55 54 48 51 48 50 50 50 49 50 51 55 62 62 61 59 58 57 56 58 57 59 58 58 59
62 62 61 60 60 60 59 58 60 60 59 61 60 61 58 57 59 53 54 58 57 52 54 56 56 56 55 56 58 59 60 60 59 58 58 58 59 59 59 59 59 58 60
61 62 62 61 60 60 58 56 42 46 46 47 48 56 61 50 44 44 43 42 43 46 56 57 56 56 56 58 58 58 59 56 58 59 59 60 59 60 59 58 60 61 60
62 61 61 60 61 59 59 59 58 52 42 43 43 44 48 47 41 42 41 41 40 49 57 57 56 57 58 59 60 60 59 60 60 61 60 60 61 60 56 60 60 60 60
63 51 63 63 62 60 60 60 61 60 60 58 45 45 42 40 40 40 40 45 54 54 59 58 58 58 59 60 61 62 61 60 61 61 62 61 61 61 58 60 61 61 60
63 62 64 63 62 60 61 60 61 61 61 58 53 47 40 38 38 39 42 60 57 58 58 59 61 61 60 61 61 62 63 60 60 61 61 61 62 62 61 62 62 46 51
64 54 58 63 61 61 60 61 60 60 60 59 58 56 49 50 53 51 52 58 59 60 60 60 60 61 62 63 63 64 61 57 59 61 62 63 63 63 63 62 62 62 58
65 61 51 63 62 63 62 61 61 61 61 60 61 55 43 59 57 58 56 57 60 62 61 61 61 61 61 62 61 60 60 60 61 62 63 62 62 62 63 63 63 63 63
65 64 63 64 64 63 63 63 62 62 62 62 61 53 38 57 61 60 59 59 61 63 64 63 63 63 63 62 62 62 62 62 62 63 63 64 63 63 64 63 63 63 63
63 63 63 64 64 54 59 63 63 62 63 63 62 57 50 56 61 62 61 62 62 63 63 64 64 64 65 64 65 65 64 64 65 65 64 64 64 64 64 63 64 63 63
63 63 64 64 64 63 63 63 63 53 63 63 62 62 59 59 61 62 63 64 63 63 64 64 65 66 65 65 66 66 67 68 68 67 66 65 65 61 65 65 65 64 63
61 61 61 61 61 61 62 63 63 63 63 64 63 63 62 62 62 64 65 65 64 64 64 65 65 66 65 65 67 67 60 45 62 58 68 67 66 65 65 64 64 62 61
54 54 55 57 58 59 59 60 60 61 62 63 64 64 64 63 63 64 65 65 65 65 65 66 66 66 66 67 67 58 45 43 50 43 65 68 66 66 66 65 65 63 63
MSLP
1001.37 1001.92 1002.36 1002.85 1003.26 1003.71 1004.12 1004.65 1005.00 1005.41 1005.76 1006.04 1006.36 1006.71 1006.96 1007.25 1007.52 1007.75 1008.00 1008.33 1008.46 1008.59 1008.76 1008.90 1008.95 1009.20 1009.44 1009.85 1010.23 1010.60 1010.94 1011.14 1011.91 1012.66 1012.91 1013.44 1013.69 1013.84 1013.85 1013.97 1014.37 1015.01 1015.71
1001.72 1002.20 1002.72 1003.13 1003.52 1003.95 1004.37 1004.74 1005.15 1005.58 1005.83 1006.04 1006.34 1006.60 1006.90 1007.12 1007.28 1007.50 1007.81 1008.04 1008.20 1008.38 1008.41 1008.63 1008.65 1008.97 1009.30 1009.62 1010.12 1010.49 1010.81 1011.01 1011.54 1012.46 1013.21 1013.89 1014.30 1014.58 1014.64 1014.91 1015.26 1015.81 1016.47
1001.97 1002.45 1003.00 1003.41 1003.83 1004.17 1004.52 1004.95 1005.30 1005.61 1005.85 1006.13 1006.32 1006.62 1006.89 1007.03 1007.19 1007.39 1007.60 1007.76 1007.87 1008.18 1008.28 1008.38 1008.34 1008.65 1009.15 1009.60 1009.97 1010.46 1010.86 1011.30 1011.89 1012.52 1013.37 1014.19 1014.83 1015.15 1015.51 1016.03 1016.40 1016.97 1017.89
1002.13 1002.61 1003.11 1003.52 1003.90 1004.25 1004.67 1005.04 1005.30 1005.61 1005.92 1006.13 1006.37 1006.60 1006.88 1007.09 1007.22 1007.42 1007.56 1007.56 1007.68 1007.87 1008.06 1008.14 1008.26 1008.45 1008.81 1009.37 1009.82 1010.36 1010.82 1011.53 1012.30 1012.98 1013.81 1014.36 1014.95 1015.82 1016.15 1016.69 1017.46 1018.23 1019.07
1002.24 1002.72 1003.13 1003.63 1004.07 1004.45 1004.80 1005.15 1005.35 1005.63 1005.96 1006.23 1006.53 1006.79 1007.09 1007.31 1007.58 1007.59 1007.51 1007.58 1007.69 1007.88 1008.03 1008.14 1008.25 1008.46 1008.76 1009.17 1009.66 1010.28 1010.84 1011.52 1012.45 1013.29 1013.84 1014.48 1015.33 1016.02 1016.58 1017.42 1018.16 1019.14 1020.12
1002.18 1002.80 1003.30 1003.81 1004.21 1004.56 1004.91 1005.22 1005.47 1005.70 1006.11 1006.39 1006.71 1006.96 1007.36 1007.77 1007.99 1007.91 1007.62 1007.54 1007.70 1007.95 1007.98 1008.16 1008.38 1008.62 1008.90 1009.17 1009.59 1010.12 1010.47 1011.21 1012.25 1013.03 1013.77 1014.44 1015.40 1016.10 1016.94 1017.62 1018.37 1019.46 1020.77
1002.27 1002.92 1003.42 1003.87 1004.27 1004.72 1004.98 1005.31 1005.67 1005.98 1006.36 1006.60 1006.93 1007.19 1007.59 1007.98 1008.02 1007.83 1007.64 1007.73 1007.85 1008.08 1008.28 1008.33 1008.60 1008.90 1009.27 1009.67 1010.12 1010.52 1011.10 1011.59 1012.15 1012.57 1013.42 1014.11 1015.01 1016.06 1016.73 1017.99 1018.83 1019.58 1020.46
1002.39 1002.91 1003.44 1003.80 1004.34 1004.77 1005.09 1005.38 1005.82 1006.22 1006.58 1006.89 1007.25 1007.49 1007.81 1008.19 1007.99 1007.86 1007.80 1007.97 1008.14 1008.28 1008.47 1008.61 1008.80 1009.10 1009.54 1009.92 1010.46 1011.10 1011.76 1012.18 1012.52 1013.02 1013.54 1014.47 1015.23 1016.34 1016.97 1017.95 1019.04 1020.08 1021.16
1002.33 1002.78 1003.30 1003.69 1004.29 1004.78 1005.15 1005.53 1006.01 1006.41 1006.82 1007.20 1007.50 1007.74 1007.89 1008.14 1008.15 1008.07 1008.04 1008.16 1008.32 1008.47 1008.61 1008.76 1009.06 1009.48 1009.93 1010.28 1010.76 1011.44 1012.16 1012.89 1013.17 1013.57 1014.25 1015.14 1015.96 1016.77 1017.30 1018.19 1019.54 1020.08 1021.46
1002.13 1002.55 1003.13 1003.64 1004.21 1004.71 1005.07 1005.59 1006.01 1006.45 1006.87 1007.27 1007.66 1007.94 1008.12 1008.16 1008.41 1008.31 1008.31 1008.42 1008.56 1008.76 1008.98 1009.18 1009.39 1009.80 1010.26 1010.59 1011.10 1011.66 1012.48 1013.22 1013.83 1014.72 1015.64 1016.28 1016.58 1017.53 1017.90 1018.22 1018.93 1019.66 1020.67
1001.94 1002.48 1003.17 1003.75 1004.26 1004.64 1005.14 1005.71 1006.16 1006.62 1007.04 1007.46 1007.76 1008.10 1008.28 1008.34 1008.61 1008.56 1008.57 1008.61 1008.76 1008.98 1009.32 1009.68 1010.16 1010.35 1010.78 1011.13 1011.36 1011.94 1012.62 1013.36 1014.21 1014.88 1015.74 1016.54 1017.37 1017.89 1018.43 1018.87 1019.16 1019.57 1020.09
1001.93 1002.49 1003.27 1003.85 1004.45 1004.87 1005.31 1005.92 1006.39 1006.71 1007.16 1007.68 1008.01 1008.28 1008.50 1008.57 1008.68 1008.84 1008.87 1008.96 1009.10 1009.20 1009.66 1010.19 1010.76 1010.89 1011.27 1011.61 1012.00 1012.50 1013.04 1013.59 1014.39 1015.13 1015.95 1016.83 1017.42 1018.07 1018.65 1018.96 1019.31 1019.69 1020.06
1001.97 1002.64 1003.35 1003.97 1004.56 1004.96 1005.50 1006.09 1006.56 1006.86 1007.19 1007.75 1008.05 1008.34 1008.57 1008.76 1008.97 1009.21 1009.35 1009.37 1009.45 1009.65 1009.98 1010.48 1011.06 1011.36 1011.74 1012.23 1012.72 1013.07 1013.47 1013.94 1014.59 1015.32 1016.06 1016.76 1017.39 1017.94 1018.69 1019.31 1019.73 1020.10 1020.28
1002.00 1002.73 1003.41 1004.00 1004.68 1005.15 1005.64 1006.15 1006.52 1006.89 1007.21 1007.61 1008.01 1008.33 1008.66 1008.88 1009.03 1009.48 1009.75 1009.99 1010.05 1010.42 1010.75 1011.23 1011.58 1011.87 1012.26 1012.91 1013.49 1013.69 1013.90 1014.16 1014.55 1015.33 1016.18 1016.97 1017.65 1018.21 1018.80 1019.31 1019.79 1020.18 1020.34
1001.96 1002.71 1003.42 1004.01 1004.57 1005.20 1005.82 1006.46 1006.53 1006.75 1007.04 1007.46 1007.83 1008.07 1008.48 1008.85 1009.13 1009.35 1009.62 1009.95 1010.25 1010.59 1010.97 1011.40 1011.80 1012.29 1012.89 1013.36 1013.62 1013.99 1014.31 1014.53 1014.93 1015.73 1016.38 1016.94 1017.50 1018.04 1018.50 1018.98 1019.30 1019.72 1019.80
1002.09 1002.81 1003.34 1003.92 1004.54 1005.10 1005.78 1006.56 1006.89 1006.84 1007.10 1007.35 1007.52 1007.76 1008.26 1008.72 1009.09 1009.39 1009.78 1010.11 1010.45 1010.75 1011.11 1011.46 1011.90 1012.45 1012.94 1013.28 1013.55 1014.03 1014.56 1014.93 1015.25 1015.70 1016.25 1016.64 1017.13 1017.64 1018.15 1018.71 1018.90 1019.06 1019.37
1001.84 1002.64 1003.39 1003.86 1004.43 1004.97 1005.51 1005.95 1006.69 1007.49 1007.45 1007.60 1007.68 1007.91 1008.25 1008.68 1009.39 1009.74 1010.17 1010.62 1010.83 1010.91 1011.22 1011.61 1011.98 1012.41 1012.84 1013.21 1013.54 1013.94 1014.39 1014.82 1015.10 1015.44 1015.82 1016.30 1016.80 1017.33 1017.80 1018.24 1018.51 1018.75 1018.98
1001.53 1002.12 1002.82 1003.52 1004.10 1004.68 1005.14 1005.57 1006.14 1006.69 1007.28 1007.89 1008.23 1008.37 1008.65 1008.88 1009.57 1010.06 1010.60 1010.90 1011.27 1011.28 1011.33 1011.61 1011.94 1012.31 1012.71 1013.07 1013.41 1013.78 1014.24 1014.73 1015.00 1015.31 1015.66 1016.09 1016.51 1016.85 1017.46 1017.71 1017.95 1018.15 1018.42
1001.41 1002.15 1002.60 1003.17 1003.80 1004.34 1004.90 1005.34 1005.84 1006.36 1006.68 1007.34 1008.23 1008.80 1009.28 1009.62 1010.03 1010.34 1010.49 1010.51 1010.89 1011.13 1011.32 1011.57 1011.77 1012.05 1012.41 1012.73 1013.09 1013.43 1013.88 1014.46 1014.79 1015.09 1015.42 1015.77 1016.12 1016.47 1016.78 1017.11 1017.41 1017.72 1018.05
1000.95 1001.46 1002.05 1002.69 1003.44 1004.09 1004.63 1005.06 1005.57 1006.05 1006.56 1007.02 1007.70 1008.45 1009.10 1009.57 1010.19 1010.49 1010.47 1010.31 1010.44 1010.65 1010.96 1011.30 1011.69 1011.91 1012.17 1012.46 1012.84 1013.22 1013.69 1014.27 1014.69 1014.84 1015.08 1015.45 1015.81 1016.14 1016.32 1016.55 1016.74 1016.91 1017.19
1000.54 1001.29 1001.72 1002.44 1003.01 1003.46 1004.01 1004.52 1004.98 1005.53 1005.90 1006.56 1007.14 1007.84 1008.03 1008.58 1009.03 1009.36 1009.63 1009.78 1009.86 1010.06 1010.39 1010.75 1011.16 1011.57 1011.94 1012.27 1012.64 1013.01 1013.34 1013.74 1014.11 1014.38 1014.59 1014.81 1015.12 1015.30 1015.45 1015.56 1015.75 1015.94 1015.98
1000.14 1000.85 1001.49 1001.94 1002.58 1003.12 1003.57 1003.96 1004.44 1004.96 1005.42 1005.90 1006.75 1007.80 1008.28 1008.55 1008.55 1008.71 1008.89 1009.03 1009.18 1009.36 1009.62 1009.98 1010.33 1010.65 1010.99 1011.31 1011.63 1011.96 1012.25 1012.55 1012.90 1013.21 1013.53 1013.79 1014.11 1014.32 1014.50 1014.65 1014.74 1014.85 1014.96
1000.25 1000.77 1001.22 1001.60 1002.08 1002.63 1003.24 1003.60 1004.05 1004.51 1004.97 1005.47 1006.10 1007.02 1007.82 1007.83 1007.70 1007.72 1007.79 1008.04 1008.36 1008.59 1008.92 1009.25 1009.55 1009.79 1009.98 1010.14 1010.40 1010.69 1010.98 1011.17 1011.39 1011.82 1012.22 1012.59 1012.89 1013.10 1013.31 1013.42 1013.57 1013.75 1013.95
1000.09 1000.84 1000.99 1001.06 1001.55 1002.16 1002.72 1003.17 1003.60 1003.93 1004.37 1004.88 1005.43 1005.94 1006.47 1006.66 1006.65 1006.61 1006.82 1007.18 1007.53 1007.76 1008.07 1008.34 1008.58 1008.76 1009.02 1009.24 1009.45 1009.67 1009.81 1009.98 1010.31 1010.60 1010.98 1011.39 1011.63 1011.90 1012.11 1012.18 1012.30 1012.37 1012.57
1000.77 1001.19 1001.92 1001.47 1001.78 1002.21 1002.65 1003.10 1003.47 1003.82 1004.19 1004.49 1004.82 1005.22 1005.51 1005.74 1005.89 1005.95 1006.13 1006.42 1006.65 1006.93 1007.05 1007.28 1007.49 1007.59 1007.79 1007.93 1007.98 1008.15 1008.34 1008.87 1009.08 1009.29 1009.67 1010.05 1010.23 1010.42 1010.57 1010.70 1010.74 1010.99 1011.18
1002.65 1002.80 1002.88 1002.42 1002.65 1003.26 1003.51 1003.84 1004.14 1004.42 1004.70 1004.95 1005.19 1005.43 1005.53 1005.59 1005.66 1005.83 1005.96 1006.06 1006.10 1006.10 1006.16 1006.35 1006.37 1006.43 1006.46 1006.67 1006.82 1007.04 1007.44 1007.80 1008.14 1008.35 1008.41 1008.76 1009.00 1009.04 1009.19 1009.24 1009.38 1009.58 1009.73
Wind_Speed
8 7 9 7 7 6 6 5 6 5 5 5 5 5 4 4 4 3 3 4 4 3 3 4 5 4 4 4 3 3 3 3 7 3 2 6 5 7 7 9 9 10 14
8 8 7 7 6 6 5 5 5 5 5 5 5 4 4 4 4 4 4 4 5 6 5 4 4 4 5 4 4 5 5 3 9 11 3 3 5 8 9 11 9 9 14
8 8 6 6 6 6 6 5 5 5 5 4 4 4 4 3 3 3 3 4 4 4 4 5 5 5 6 5 5 6 6 6 8 7 6 3 3 7 10 10 11 13 11
8 7 7 6 6 5 5 5 6 5 5 4 4 4 4 3 2 2 3 4 4 4 4 4 3 5 7 8 7 9 9 9 8 7 7 7 6 7 10 12 10 8 10
7 6 6 5 5 5 5 5 5 5 4 4 5 5 5 4 2 1 1 3 4 4 3 2 3 4 8 10 8 11 12 10 8 9 9 9 9 9 11 8 11 9 8
7 6 5 5 5 5 5 5 5 5 4 5 5 5 5 4 5 4 1 4 4 5 4 3 4 7 8 11 12 11 12 14 12 9 9 12 11 10 9 11 12 10 5
7 6 6 6 6 5 5 5 5 5 5 5 5 5 5 3 6 2 3 4 4 5 4 4 4 5 8 8 11 13 10 11 10 13 13 13 14 13 12 11 11 6 5
6 7 6 6 6 5 5 5 5 5 5 4 4 4 4 2 5 5 7 7 6 5 4 4 6 5 6 9 10 11 10 9 10 9 12 12 14 12 11 10 10 9 8
7 7 7 7 7 6 5 5 4 5 4 3 4 4 4 3 4 6 7 6 5 4 4 5 6 6 9 11 10 11 10 7 9 14 15 16 16 15 14 12 9 11 6
8 8 7 7 7 6 6 6 3 4 4 5 5 4 4 3 4 7 6 4 5 4 4 5 9 9 13 13 12 12 12 10 13 14 13 14 15 13 11 7 10 11 8
6 8 7 6 6 6 6 3 5 6 6 5 5 3 4 3 3 4 7 3 4 4 3 4 4 13 12 12 11 11 12 13 15 13 12 10 10 10 6 6 5 7 6
7 8 7 7 5 5 6 4 6 6 6 5 5 3 3 3 4 2 3 7 3 4 5 5 5 12 13 13 11 17 16 13 10 10 10 9 9 7 6 6 6 5 2
8 8 7 6 5 6 6 6 5 5 5 5 4 4 3 2 3 6 6 8 8 5 5 8 11 13 14 13 16 15 12 10 10 10 9 8 7 6 6 5 4 5 5
8 8 7 7 6 5 4 4 5 5 5 5 5 4 3 2 3 4 4 6 9 7 10 8 7 9 10 10 9 6 7 8 10 9 8 6 6 6 5 5 4 5 2
8 7 7 6 6 5 4 3 4 3 5 6 5 5 5 5 3 5 6 6 5 7 8 6 6 5 7 7 6 7 6 7 8 7 7 7 7 7 5 6 4 5 4
8 6 6 6 5 5 6 4 9 3 8 6 9 6 4 4 9 10 10 11 13 12 5 5 6 6 7 7 7 7 6 6 6 7 7 8 8 8 6 5 3 5 6
9 7 6 6 6 6 5 5 5 4 8 6 4 8 9 7 9 10 12 12 7 8 5 5 6 6 7 6 6 7 8 6 8 8 8 8 8 7 6 6 6 5 5
9 11 9 7 6 6 5 5 4 5 4 3 6 3 4 8 12 13 13 10 4 3 5 5 5 5 6 6 7 8 7 7 8 8 8 8 8 8 7 8 7 8 7
8 7 7 6 6 6 5 4 4 4 3 4 3 5 8 10 10 10 10 6 7 6 5 6 6 6 6 6 6 5 7 8 8 8 8 8 9 8 8 8 7 6 5
8 13 10 8 7 6 5 5 4 4 4 4 6 5 5 4 4 4 4 5 7 7 7 7 7 4 5 5 7 8 6 5 7 8 8 8 7 7 8 8 9 9 8
7 8 9 7 7 7 7 6 5 4 4 5 6 7 9 8 9 9 7 8 7 7 7 7 8 9 9 9 9 6 6 7 8 9 8 9 9 9 10 9 9 9 10
8 8 8 8 7 7 7 6 6 6 6 5 5 5 8 4 7 8 8 8 9 8 8 8 8 9 9 10 10 11 11 12 11 11 10 10 10 10 10 10 10 10 11
5 7 8 6 7 7 6 7 7 6 6 6 6 7 6 8 8 8 9 9 9 9 8 8 9 9 9 9 10 11 11 11 10 10 10 10 10 10 10 10 11 11 10
5 4 8 7 7 7 7 7 7 7 8 7 7 7 8 9 9 10 9 8 9 9 9 9 9 12 10 10 9 10 10 10 9 11 15 11 11 11 11 12 12 14 12
7 4 1 3 3 3 4 5 6 7 7 7 7 7 7 7 8 9 8 8 8 9 11 11 10 14 17 19 17 18 15 13 15 13 12 14 15 16 14 12 13 12 14
11 10 9 8 9 7 5 4 3 3 2 2 2 3 4 5 7 7 7 8 8 9 11 9 13 18 19 17 20 18 14 14 16 15 14 12 13 13 13 15 18 13 14
Wind_Direction
118 118 121 119 116 119 123 134 141 135 145 145 145 157 162 167 172 173 192 216 226 215 204 211 221 177 183 157 166 160 159 135 131 103 77 95 83 86 75 84 98 110 115
128 125 119 120 122 122 131 138 140 139 143 142 151 148 156 175 166 173 193 207 200 202 180 196 229 167 157 141 149 160 154 140 133 134 112 89 76 86 85 90 91 100 111
127 123 120 130 133 139 143 145 141 136 136 141 137 147 152 143 141 187 203 207 199 197 187 184 224 178 155 152 146 132 121 117 121 129 122 97 93 98 85 81 88 93 97
128 131 140 153 150 143 145 144 141 150 152 141 156 138 120 122 129 164 175 193 177 163 181 209 215 197 165 154 134 131 128 122 116 120 108 118 106 110 107 112 94 81 92
137 144 159 143 137 139 142 146 146 147 147 142 133 109 108 101 43 338 202 176 150 133 131 145 142 160 146 152 146 147 137 129 130 129 131 118 125 130 124 118 104 103 67
144 145 134 139 138 146 141 155 151 126 130 132 119 119 109 84 341 344 279 145 142 135 125 109 108 107 114 124 130 144 142 142 143 138 134 135 134 124 131 132 126 128 116
133 137 151 147 139 150 150 152 145 135 138 124 114 115 101 84 358 9 134 109 118 122 125 129 114 111 122 120 113 118 116 109 141 146 144 151 135 144 134 132 128 110 108
142 153 158 147 142 148 148 147 111 127 140 120 119 113 109 53 3 98 116 109 106 107 122 127 128 123 120 128 130 129 133 128 132 144 147 139 135 137 129 115 113 100 84
155 164 163 151 144 152 152 139 121 131 124 121 130 128 109 59 35 119 113 106 101 92 107 117 127 121 133 124 117 116 112 96 83 107 110 110 111 113 125 118 121 127 131
167 169 150 147 148 160 148 138 125 132 126 121 119 111 96 91 74 127 121 111 109 95 73 89 110 128 129 123 123 125 120 125 117 112 106 100 109 114 104 121 146 150 145
148 139 141 144 149 152 137 125 130 130 120 112 120 111 90 53 97 144 130 111 122 104 95 87 96 119 115 111 122 129 130 128 121 122 120 118 125 130 127 136 151 158 154
142 138 140 135 144 148 137 118 126 133 126 124 129 116 94 74 67 106 133 103 113 112 100 98 110 116 112 109 109 118 117 120 123 126 129 137 143 146 141 154 148 144 78
136 135 140 132 138 147 140 135 130 134 135 140 142 150 140 73 96 67 89 106 90 92 102 111 118 111 103 98 121 124 127 128 130 135 143 141 147 143 120 112 105 97 63
140 138 142 137 139 139 127 135 138 146 147 150 162 163 148 117 112 117 113 100 91 87 101 112 116 100 96 116 123 123 134 145 143 139 138 118 117 138 153 155 166 171 177
142 145 143 135 149 134 102 118 146 146 160 170 177 176 162 176 166 148 145 139 122 116 116 120 116 110 122 137 135 121 115 128 131 124 134 142 151 159 165 165 147 171 196
140 150 158 150 153 151 151 130 49 76 165 160 167 160 153 158 146 149 136 120 129 132 115 124 119 126 135 148 142 130 133 126 130 138 150 161 168 176 165 170 173 185 194
155 152 149 149 155 161 159 156 155 61 71 67 176 162 161 156 148 140 130 125 112 120 128 127 128 137 143 147 145 149 160 164 156 163 168 174 176 183 173 185 191 198 211
155 158 163 168 163 163 174 168 159 172 163 147 53 61 137 141 138 129 130 115 113 91 142 140 143 147 150 155 160 170 166 172 180 179 181 184 188 187 188 204 205 214 222
151 163 164 160 162 160 164 160 167 172 165 134 128 78 71 80 107 133 165 160 168 170 166 166 163 160 165 169 173 175 176 183 191 187 189 193 197 196 206 215 223 226 220
166 166 163 164 154 160 166 173 185 178 160 157 160 154 140 133 155 158 200 186 181 183 178 178 183 191 193 192 194 201 190 188 195 200 200 203 207 213 224 224 225 231 224
167 163 161 160 170 175 174 183 184 187 181 170 178 172 178 170 178 184 184 200 201 197 193 191 186 189 189 193 197 194 200 203 209 210 207 205 205 212 220 229 236 236 242
163 164 169 175 169 171 184 183 178 185 192 189 169 153 163 204 182 189 199 209 211 206 197 192 198 201 198 197 197 199 201 203 204 205 211 214 213 218 221 227 233 237 241
141 162 171 172 174 166 166 179 182 187 192 200 181 162 180 204 203 202 205 207 207 208 202 198 203 206 204 200 198 199 204 209 208 202 208 212 216 219 221 227 231 236 236
131 175 179 175 170 174 182 186 190 190 191 195 188 187 193 205 209 212 212 207 207 210 207 207 210 211 208 209 207 209 214 215 208 209 209 213 218 216 226 229 233 237 240
59 99 281 89 112 171 180 187 192 191 195 197 196 201 205 207 215 222 222 217 212 208 211 210 212 217 216 213 215 213 212 201 209 207 208 219 223 224 225 228 231 232 232
46 51 53 57 60 56 56 63 56 46 25 344 320 270 237 225 234 239 240 235 231 229 228 222 225 222 222 223 224 222 212 207 212 214 214 220 225 230 231 234 237 236 239